TimePDT,TemperatureF,Dew PointF,Humidity,Sea Level PressureIn,VisibilityMPH,Wind Direction,Wind SpeedMPH,Gust SpeedMPH,PrecipitationIn,Events,Conditions,WindDirDegrees,DateUTC
12:53 AM,42.1,35.1,76,30.09,9.0,West,19.6,29.9,0.00,Rain,Light Rain,270,2013-03-17 07:53:00
1:53 AM,42.1,33.1,70,30.10,10.0,West,18.4,24.2,0.00,,Mostly Cloudy,260,2013-03-17 08:53:00
2:53 AM,42.1,34.0,73,30.12,10.0,West,15.0,23.0,N/A,,Mostly Cloudy,280,2013-03-17 09:53:00
3:53 AM,43.0,34.0,71,30.14,10.0,West,17.3,-,N/A,,Clear,260,2013-03-17 10:53:00
4:53 AM,43.0,33.1,68,30.16,10.0,West,19.6,25.3,N/A,,Mostly Cloudy,280,2013-03-17 11:53:00
5:53 AM,42.1,34.0,73,30.18,10.0,West,12.7,-,0.00,,Scattered Clouds,260,2013-03-17 12:53:00
6:48 AM,39.2,33.8,81,30.19,10.0,WNW,8.1,23.0,0.01,,Overcast,290,2013-03-17 13:48:00
6:53 AM,39.0,33.1,79,30.20,10.0,WNW,8.1,-,0.01,,Overcast,290,2013-03-17 13:53:00
7:53 AM,42.1,32.0,67,30.22,10.0,West,9.2,-,N/A,,Mostly Cloudy,280,2013-03-17 14:53:00
8:53 AM,37.9,33.1,83,30.24,8.0,WNW,4.6,21.9,0.00,Rain,Light Rain,290,2013-03-17 15:53:00
9:53 AM,44.1,35.1,71,30.24,10.0,WSW,15.0,-,0.01,,Mostly Cloudy,250,2013-03-17 16:53:00
10:53 AM,45.0,33.1,63,30.25,10.0,WSW,18.4,21.9,N/A,,Partly Cloudy,250,2013-03-17 17:53:00
11:53 AM,46.0,33.1,61,30.25,10.0,WSW,12.7,-,N/A,,Mostly Cloudy,250,2013-03-17 18:53:00
12:53 PM,46.0,33.1,61,30.26,10.0,WSW,17.3,21.9,N/A,,Scattered Clouds,250,2013-03-17 19:53:00
1:53 PM,46.0,36.0,68,30.26,10.0,SW,18.4,21.9,N/A,,Overcast,230,2013-03-17 20:53:00
2:53 PM,46.0,33.1,61,30.25,10.0,WSW,12.7,21.9,N/A,,Mostly Cloudy,250,2013-03-17 21:53:00
3:53 PM,45.0,32.0,60,30.25,10.0,WSW,13.8,21.9,N/A,,Mostly Cloudy,250,2013-03-17 22:53:00
4:53 PM,43.0,35.1,74,30.26,10.0,SW,16.1,-,N/A,,Overcast,220,2013-03-17 23:53:00
5:20 PM,42.8,35.6,76,30.25,10.0,WNW,8.1,17.3,0.01,Rain,Light Rain,290,2013-03-18 00:20:00
5:29 PM,42.8,35.6,76,30.25,10.0,West,6.9,-,0.01,Rain,Light Rain,280,2013-03-18 00:29:00
5:53 PM,41.0,35.1,79,30.25,10.0,WSW,8.1,-,0.01,Rain,Light Rain,240,2013-03-18 00:53:00
6:53 PM,42.1,35.1,76,30.24,10.0,West,12.7,23.0,0.00,,Overcast,270,2013-03-18 01:53:00
7:53 PM,42.1,35.1,76,30.24,10.0,WSW,11.5,-,N/A,,Overcast,250,2013-03-18 02:53:00
8:53 PM,41.0,36.0,82,30.24,10.0,NW,5.8,-,N/A,,Overcast,310,2013-03-18 03:53:00
9:53 PM,41.0,37.0,86,30.25,10.0,Variable,6.9,-,0.02,,Overcast,0,2013-03-18 04:53:00
10:05 PM,41.0,35.6,81,30.24,8.0,West,16.1,19.6,0.01,Rain,Light Rain,270,2013-03-18 05:05:00
10:33 PM,41.0,35.6,81,30.23,10.0,WSW,9.2,-,0.02,Rain,Light Rain,240,2013-03-18 05:33:00
10:53 PM,42.1,37.0,82,30.24,10.0,WSW,9.2,-,0.02,,Overcast,250,2013-03-18 05:53:00
11:12 PM,41.0,37.4,87,30.23,10.0,Variable,3.5,-,N/A,,Overcast,0,2013-03-18 06:12:00
11:19 PM,41.0,37.4,87,30.23,10.0,Calm,Calm,-,N/A,,Overcast,0,2013-03-18 06:19:00
11:38 PM,41.0,37.4,87,30.23,10.0,Calm,Calm,-,N/A,,Overcast,0,2013-03-18 06:38:00
11:53 PM,42.1,37.9,85,30.24,5.0,WSW,9.2,-,0.02,Rain,Light Rain,250,2013-03-18 06:53:00